EHI
0 4 14 21 22 23 22 21 25 33 44 49 50 49 49 47 46 48 47 41 36 35 34 31 23 14 8 5 2 0 0 0 1 2 3 2 1 0 0 0 0 0 0
0 4 13 20 21 23 24 25 27 32 39 44 46 47 48 47 47 48 46 41 37 35 34 29 21 14 10 7 3 0 0 0 1 2 2 1 0 0 0 0 0 0 0
1 5 12 18 20 22 25 28 30 31 34 38 42 45 46 46 46 46 43 38 34 32 30 24 18 14 12 9 4 1 0 0 0 1 1 0 0 0 0 0 0 0 0
2 5 11 16 19 21 23 26 30 32 33 35 38 40 42 43 43 42 39 33 28 26 24 20 15 13 12 9 5 1 0 0 0 0 0 0 0 0 0 0 0 0 0
4 6 10 15 19 21 21 22 26 30 32 33 34 34 34 37 38 37 35 29 24 23 21 18 14 12 10 8 5 1 0 0 0 0 0 0 0 0 0 0 0 0 0
4 6 10 15 19 21 19 18 21 25 27 28 29 28 27 29 31 33 32 26 22 20 18 15 13 11 10 7 3 1 0 0 0 0 0 0 0 0 0 0 0 0 0
4 6 9 14 17 19 18 17 18 21 22 23 23 24 23 23 24 27 27 24 20 17 15 13 12 11 9 5 2 0 0 0 0 0 0 0 0 0 0 0 0 0 0
4 6 8 10 13 14 15 15 16 17 18 19 20 20 20 19 19 19 21 22 20 17 14 12 10 10 7 3 0 0 0 0 0 0 0 0 0 0 0 0 0 0 0
4 5 6 6 7 9 10 11 11 12 13 15 17 17 16 16 15 14 15 19 19 16 13 11 9 8 6 2 0 0 0 0 0 0 0 0 0 0 0 0 0 0 0
4 4 5 4 4 5 5 4 6 7 9 12 13 11 9 9 10 9 9 13 16 15 12 9 6 6 4 1 0 0 0 0 0 0 0 0 0 0 0 0 0 0 0
4 4 4 3 3 3 2 1 2 4 6 7 8 6 3 2 4 4 4 6 10 11 10 6 4 3 1 0 0 0 0 0 0 0 0 0 0 0 0 0 0 0 0
5 4 3 3 3 3 2 1 1 3 4 4 5 3 1 0 1 2 1 1 3 6 6 4 2 1 0 0 0 0 0 0 0 0 0 0 0 0 0 0 0 0 0
4 3 2 2 3 3 2 1 1 2 3 2 2 2 1 0 1 1 1 0 0 1 2 2 1 0 0 0 0 0 0 0 0 0 0 0 0 0 0 0 0 0 0
2 1 0 1 3 3 2 1 1 2 1 1 0 0 0 0 0 0 0 0 0 0 0 0 0 0 0 0 0 0 0 0 0 0 0 0 0 0 0 0 0 0 0
1 0 0 1 2 3 2 1 1 1 1 0 0 0 0 0 0 0 0 0 0 0 0 0 0 0 0 0 0 0 0 0 0 0 0 0 0 0 0 0 0 0 0
0 0 0 1 2 3 2 1 0 0 0 0 0 0 0 0 0 0 0 0 0 0 0 0 0 0 0 0 0 0 0 0 0 0 0 0 0 0 0 0 0 0 0
0 0 0 1 2 3 2 1 0 0 0 0 0 0 0 0 0 0 0 0 0 0 0 0 0 0 0 0 0 0 0 0 0 0 0 0 0 0 0 0 0 0 0
0 0 0 1 2 3 2 1 0 0 0 0 0 0 0 0 0 0 0 0 0 0 0 0 0 0 0 0 0 0 0 0 0 0 0 0 0 0 0 0 0 0 0
0 0 0 0 1 2 2 0 0 0 0 0 0 0 0 0 0 0 0 0 0 0 0 0 0 0 0 0 0 0 0 0 0 0 0 0 0 0 0 0 0 0 0
0 0 0 0 1 2 2 1 0 0 0 0 0 0 0 0 0 0 0 0 0 0 0 0 0 0 0 0 0 0 0 0 0 0 0 0 0 0 0 0 0 0 0
0 0 0 0 0 1 2 2 1 0 0 0 0 0 0 0 0 0 0 0 0 0 0 0 0 0 0 0 0 0 0 0 0 0 0 0 0 0 0 0 0 0 0
0 0 0 0 0 0 1 1 1 0 0 0 0 0 0 0 0 0 0 0 0 0 0 0 0 0 0 0 0 0 0 0 0 0 0 0 0 0 0 0 0 0 0
0 0 0 0 0 0 0 0 0 0 0 0 0 0 0 0 0 0 0 0 0 0 0 0 0 0 0 0 0 0 0 0 0 0 0 0 0 0 0 0 0 0 0
0 0 0 0 0 0 0 0 0 0 0 0 0 0 0 0 0 0 0 0 0 0 0 0 0 0 0 0 0 0 0 0 0 0 0 0 0 0 0 0 0 0 0
0 0 0 0 0 0 0 0 0 0 0 0 0 0 0 0 0 0 0 0 0 0 0 0 0 0 0 0 0 0 0 0 0 0 0 0 0 0 0 0 0 0 0
0 0 0 0 0 0 0 0 0 0 0 0 0 0 0 0 0 0 0 0 0 0 0 0 0 0 0 0 0 0 0 0 0 0 0 0 0 0 0 0 0 0 0
Wind_Speed
4 3 4 5 7 8 8 9 10 10 10 11 12 13 14 15 15 15 15 15 14 14 14 14 14 14 14 14 14 13 13 12 12 12 12 12 12 13 13 13 12 8 14
3 2 4 4 6 7 9 8 8 9 10 10 12 13 13 14 14 15 15 15 15 14 14 14 14 14 14 14 13 13 12 13 12 12 11 10 12 12 13 13 12 8 14
3 1 3 4 5 6 7 8 8 9 9 10 11 12 13 14 14 15 15 15 15 14 14 14 14 14 14 14 13 13 13 13 13 12 10 5 7 12 13 13 13 14 14
2 1 1 2 4 5 6 7 9 9 9 10 11 12 13 13 14 15 15 15 15 14 14 14 14 14 14 14 13 13 13 13 12 11 5 3 4 11 13 13 13 13 14
3 2 2 2 3 4 5 6 7 9 10 10 10 12 13 13 14 15 15 15 15 14 14 14 14 14 14 14 13 13 13 13 12 8 4 3 3 10 13 13 13 13 13
4 3 2 3 3 4 5 5 6 8 9 10 11 11 13 13 13 14 14 14 14 15 15 14 14 14 14 14 13 13 13 13 9 5 4 3 3 10 12 13 13 12 12
4 3 3 4 4 4 4 6 6 7 8 10 11 11 11 13 13 13 13 13 14 15 15 15 15 15 14 14 13 13 13 13 6 4 3 3 4 10 12 12 12 12 12
3 3 2 4 4 4 4 5 5 6 7 8 10 11 11 11 13 14 14 14 14 16 16 16 16 15 15 14 14 13 13 11 7 5 3 2 7 10 11 11 11 11 11
4 3 3 3 3 4 4 4 5 6 7 7 8 9 10 11 11 14 15 15 15 15 16 17 16 16 15 14 14 13 13 11 5 3 3 2 7 10 10 10 10 10 10
4 3 3 3 3 3 3 5 5 6 7 7 8 8 8 9 10 12 13 14 15 15 16 17 17 16 15 15 14 14 12 9 4 4 2 3 8 10 10 10 10 10 9
5 4 3 3 3 3 3 4 5 5 6 7 6 7 7 5 6 7 9 13 15 16 16 17 17 16 15 13 14 13 10 3 4 3 2 6 9 10 10 10 9 9 9
6 5 3 3 4 3 3 2 3 3 4 4 4 5 4 4 4 5 8 12 14 15 16 16 17 15 10 6 9 10 4 5 4 2 3 8 9 10 10 10 9 9 8
7 6 5 4 4 3 3 2 2 2 2 3 4 4 4 3 3 4 4 6 8 10 8 9 9 6 6 5 5 4 5 4 3 2 3 8 9 10 10 9 9 8 8
7 7 5 4 3 4 3 3 2 2 3 3 4 4 4 3 4 4 4 4 5 5 6 5 4 6 7 7 7 6 6 4 3 2 3 7 9 9 10 9 9 9 8
7 7 7 5 4 4 3 3 3 3 3 4 4 4 5 5 5 5 4 4 5 5 6 6 6 7 8 8 7 7 6 5 5 3 2 6 7 8 9 9 9 9 8
7 7 7 5 4 4 4 3 3 3 3 3 4 5 6 5 6 6 5 5 5 6 6 7 8 7 7 7 7 7 7 6 5 4 3 4 7 8 9 9 9 9 9
7 6 6 6 4 4 4 5 4 4 4 4 4 5 6 5 6 6 6 6 6 6 7 6 7 5 6 7 7 7 6 6 5 5 4 3 3 5 8 9 9 9 9
5 6 6 6 5 5 5 5 4 4 4 4 4 4 6 6 6 6 6 6 6 6 7 7 7 6 6 7 6 6 5 5 6 5 4 3 3 2 4 7 8 9 8
5 5 5 6 5 5 5 4 4 4 5 5 4 5 5 7 7 6 6 6 7 6 6 8 7 7 7 7 6 5 5 5 5 5 5 5 4 3 3 4 6 7 8
5 5 4 5 5 5 4 3 3 4 4 4 5 5 6 6 8 7 6 7 7 6 6 7 8 7 6 7 6 5 4 4 4 5 6 5 4 5 4 3 3 3 6
4 4 4 4 5 3 3 3 3 3 4 4 5 7 7 7 8 7 6 7 8 8 8 9 7 8 6 6 5 3 1 2 4 4 4 4 5 5 5 4 3 3 2
4 4 5 5 5 4 4 4 4 4 4 5 5 6 7 7 8 8 8 8 8 7 9 9 8 7 5 7 6 6 3 2 3 4 4 5 6 4 5 5 5 4 3
5 5 5 6 6 5 5 3 3 3 3 4 4 5 6 7 8 8 10 9 9 9 9 10 11 10 8 6 6 7 6 6 3 3 5 5 5 5 5 4 5 5 5
6 5 6 6 5 5 5 4 5 5 6 6 5 5 6 7 8 8 9 10 10 9 9 10 10 9 11 9 6 3 3 5 5 3 2 3 5 6 6 5 5 5 5
6 5 5 6 6 6 5 5 6 6 6 5 5 6 7 7 7 9 9 9 9 8 9 10 10 11 9 9 7 5 3 2 3 4 4 4 3 4 5 5 4 4 5
6 5 5 6 7 6 6 6 7 8 7 7 7 7 6 5 6 9 9 9 10 9 10 10 10 12 10 9 7 6 6 5 5 4 5 5 4 3 3 3 4 4 4
Wind_Direction
296 266 231 181 174 172 171 171 165 160 157 156 155 154 153 152 152 150 149 146 144 141 139 137 135 133 130 127 123 121 120 119 114 111 109 108 105 103 100 95 92 85 92
276 234 227 192 179 181 178 174 171 166 164 162 160 158 156 155 154 154 152 150 149 147 143 140 137 135 131 127 125 124 122 118 113 107 105 106 110 110 107 105 102 98 95
338 251 219 205 189 188 187 181 174 171 172 170 167 165 163 162 160 159 157 156 154 151 147 143 139 136 132 130 127 125 123 119 112 106 97 85 109 115 112 108 104 100 97
340 316 266 228 199 194 194 193 185 179 178 178 176 174 171 170 167 165 163 161 158 153 150 146 144 140 136 135 131 128 124 119 114 105 88 87 104 117 114 111 105 101 98
352 332 303 287 217 202 198 201 197 190 187 185 184 181 178 176 175 171 167 164 161 157 153 150 147 142 140 139 135 132 127 123 115 100 89 86 94 120 116 112 107 104 102
345 331 308 297 249 226 213 209 206 204 199 195 191 186 185 182 180 177 173 167 164 161 157 155 149 146 145 144 141 137 134 127 110 98 95 93 100 121 118 114 112 110 107
332 327 309 306 273 249 237 224 215 212 208 203 199 194 190 189 185 180 176 172 169 166 163 160 155 153 152 150 147 141 137 130 118 110 109 111 123 124 121 119 117 113 110
318 317 309 305 293 268 248 243 229 222 215 208 205 202 198 194 191 187 181 176 174 171 167 164 161 159 157 157 151 145 140 134 126 124 126 133 141 132 127 124 123 120 117
325 320 313 299 287 288 271 253 245 233 229 218 209 203 201 201 197 194 185 178 177 175 171 168 166 163 162 161 153 149 144 138 131 134 140 150 149 141 133 131 128 125 121
317 312 306 305 293 272 258 259 258 252 240 233 221 210 204 204 201 196 189 183 181 178 175 172 169 168 165 162 156 151 144 134 135 140 146 165 155 147 142 138 134 130 125
309 301 291 292 290 283 274 268 255 251 246 236 225 214 206 203 199 194 194 187 184 180 179 176 172 170 164 162 157 149 139 133 142 150 165 171 161 153 149 146 142 137 134
293 290 278 275 280 277 276 273 254 239 234 231 216 208 200 196 196 190 190 191 187 181 180 179 175 168 156 152 153 145 136 142 145 163 183 175 169 161 155 153 150 147 144
277 275 278 268 271 270 263 254 252 247 224 225 220 209 200 192 189 183 182 189 187 180 176 175 174 162 152 148 143 146 149 150 155 173 187 182 178 170 163 161 160 158 156
289 284 275 264 262 263 259 250 238 244 231 216 217 209 193 191 193 185 185 187 185 177 170 166 167 160 155 153 152 155 158 160 164 173 195 189 185 181 174 171 172 172 171
289 290 283 267 257 255 253 247 243 232 236 221 212 211 202 194 198 192 187 187 190 178 173 169 168 167 162 160 161 163 166 169 171 175 191 196 192 191 185 181 183 184 181
284 290 285 273 259 252 251 244 239 227 229 232 216 217 210 204 198 197 190 188 191 183 177 175 173 173 171 166 167 169 171 172 176 178 183 197 199 199 196 193 194 191 185
278 280 285 275 265 258 256 248 239 235 221 222 223 221 214 210 202 199 193 191 191 184 175 171 170 169 171 168 170 171 172 176 177 183 182 184 195 202 204 203 199 198 194
271 274 281 289 279 266 259 256 242 234 230 222 216 216 220 211 208 202 199 193 186 182 179 175 173 172 176 173 171 175 176 176 181 185 181 182 185 192 205 207 206 205 204
262 266 275 285 277 271 267 259 252 236 232 225 216 214 221 220 208 206 207 195 182 182 186 183 177 173 175 176 173 173 175 181 184 184 186 188 189 186 191 207 208 211 214
267 260 263 281 279 274 274 267 262 245 236 228 218 220 222 223 215 207 208 196 182 182 188 186 178 174 175 169 166 165 173 183 185 189 193 189 190 191 189 193 195 212 217
284 272 269 280 276 274 271 261 257 252 244 236 225 223 221 224 220 208 211 198 188 190 191 187 179 174 171 154 142 146 141 184 198 197 193 189 194 193 187 190 189 190 210
282 277 275 275 263 260 257 249 243 247 245 238 235 226 223 222 222 216 209 201 194 193 190 189 176 169 172 169 157 149 164 201 225 205 193 197 198 188 193 196 190 192 191
287 281 278 275 268 264 268 271 273 268 260 249 242 231 223 222 222 217 213 204 197 194 195 192 185 176 176 184 176 163 166 192 179 206 204 201 195 193 197 193 196 196 193
276 283 277 276 277 271 266 265 257 253 252 248 240 237 233 224 222 215 211 207 200 198 198 195 195 185 175 181 184 195 170 152 158 176 208 203 199 201 199 197 196 196 191
276 279 284 286 280 277 268 261 260 255 251 253 246 241 238 231 224 220 211 206 200 198 199 198 197 190 184 183 181 169 162 147 146 156 183 194 205 210 201 198 194 194 191
282 281 280 282 283 279 275 268 259 261 260 259 255 241 237 233 227 221 213 207 202 197 197 198 200 195 191 187 185 177 170 166 172 167 176 184 198 209 198 192 194 195 192